TOPSWRTT 000
TTAA00 KICT 011612

Wichita AWIPS Roundup
National Weather Service Wichita KS
1100 AM CDT WED OCT 01 2014

....Central Kansas....
  
CITY           SKY/WX    TMP DP  RH WIND       PRES   REMARKS
RUSSELL        CLOUDY    63  62  97 NE8       29.77S FOG              
SALINA         PTSUNNY   70  64  81 NW10      29.76S                  
GREAT BEND     CLOUDY    63  59  88 N10       29.78R                  
ELLSWORTH      MOSUNNY   72  66  83 N7        29.76S                  
MCPHERSON      SUNNY     75  66  73 S5        29.75R                  
HAYS           CLOUDY    63  57  82 NE10      29.79S                  

....South Central Kansas....
  
CITY           SKY/WX    TMP DP  RH WIND       PRES   REMARKS
HUTCHINSON     SUNNY     77  64  64 S9        29.74F                  
NEWTON         SUNNY     77  63  61 S13       29.77S                  
KINGMAN        SUNNY     79  64  61 S3        29.74S HX  81           
WICHITA (ICT)  MOSUNNY   80  63  55 S13       29.74R HX  81           
JABARA ARPT    SUNNY     79  63  57 S15       29.74S HX  80           
MCCONNELL AFB  MOSUNNY   79  65  63 S14       29.75S HX  80           
EL DORADO      FAIR      81  66  61 S15G21    29.75S HX  83           
HARPER           N/A     77  64  65 S10G18    29.77S                  
WELLINGTON     SUNNY     81  66  61 SW10      29.75S HX  83           
WINFIELD       SUNNY     78  68  71 S12       29.76S HX  80           
 
....Southeast Kansas....
  
CITY           SKY/WX    TMP DP  RH WIND       PRES   REMARKS
EUREKA         MOSUNNY   79  70  73 S14       29.75F HX  81           
CHANUTE        CLOUDY    74  69  85 S14       29.78S                  
PARSONS        LGT RAIN  80  69  69 S15G22    29.79S HX  83           
COFFEYVILLE    MOSUNNY   78  68  71 S13       29.77S HX  80           
INDEPENDENCE   PTSUNNY   77  66  69 S18G24    29.77S                  
FORT SCOTT     SUNNY     81  70  69 S14       29.78S HX  84           
PITTSBURG      PTSUNNY   80  68  65 S14       29.79F HX  83           

....Western Kansas....
  
CITY           SKY/WX    TMP DP  RH WIND       PRES   REMARKS
GOODLAND       SUNNY     65  44  46 N10       29.87S                  
HILL CITY      CLOUDY    65  59  81 NE3       29.81R                  
LIBERAL        SUNNY     72  46  40 N13       29.81S                  
GARDEN CITY    SUNNY     69  48  47 N13       29.80S                  
DODGE CITY     SUNNY     72  52  49 NE8       29.78S                  
PRATT          SUNNY     73  59  60 W3        29.76S                  
MEDICINE LODGE   N/A     76  62  62 SW6       29.72F                  

....Northeast Kansas....
  
CITY           SKY/WX    TMP DP  RH WIND       PRES   REMARKS
CONCORDIA      CLOUDY    68  64  87 CALM      29.77S                  
TOPEKA         CLOUDY    72  67  84 SW7       29.77R                  
MANHATTAN      CLOUDY    77  67  71 VRB7      29.76R                  
LAWRENCE       PTSUNNY   71  66  84 S7        29.77S                  
OLATHE         CLOUDY    69  66  90 S6        29.79R                  
EMPORIA        MOSUNNY   73  65  75 VRB6      29.76F                  

....Oklahoma....
  
CITY           SKY/WX    TMP DP  RH WIND       PRES   REMARKS
GAGE           SUNNY     71  48  43 W8        29.76R                  
PONCA CITY     SUNNY     80  68  66 S8        29.73S HX  83           
BARTLESVILLE   SUNNY     80  70  71 S10       29.77F HX  83           
TULSA          MOSUNNY   82  69  64 S15       29.77F HX  85           
OKLAHOMA CITY  MOSUNNY   85  64  49 SW20G29   29.76F HX  86           

Note: "fair" indicates few or no clouds below 12,000 feet with no
significant weather and/or obstructions to visibility.
  

USA.gov is the U.S. government's official web portal to all federal, state and local government web resources and services.